Regional Weather Roundup
Issued by NWS Northern Indiana

Home | Current Version | Previous Version | Graphics & Text | Print | Product List | Glossary On
Versions: 1 2 3 4 5 6 7 8 9 10 11 12 13 14 15 16 17 18 19 20 21 22 23 24 25 26 27 28 29 30 31 32 33 34 35 36 37 38 39 40 41 42 43 44 45 46 47 48 49 50
000
ASUS43 KIWX 180600
RWRIWX

KIWX WEATHER ROUNDUP
NATIONAL WEATHER SERVICE NORTHERN INDIANA
200 AM EDT SAT APR 18 2015

NOTE: "FAIR" INDICATES FEW OR NO CLOUDS BELOW 12,000 FEET WITH NO
SIGNIFICANT WEATHER AND/OR OBSTRUCTIONS TO VISIBILITY.

* THESE STATIONS ARE NOT UNDER NWS QUALITY CONTROL. THEY ALSO MAY NOT
  REPORT WEATHER SUCH AS PRECIPITATION OR FOG.

INZ001>027-180700-
NORTHERN INDIANA

CITY           SKY/WX    TMP DP  RH WIND       PRES   REMARKS
SOUTH BEND     FAIR      56  43  61 CALM      30.03S
6HR MIN TEMP:  56; 6HR MAX TEMP:  71;

GOSHEN         FAIR      54  46  74 S3        30.02S
6HR MIN TEMP:  51; 6HR MAX TEMP:  69;

ANGOLA*        CLEAR     48  45  87 CALM      30.02F
FORT WAYNE     FAIR      52  46  80 SW7       30.04S
6HR MIN TEMP:  52; 6HR MAX TEMP:  70;

PERU/GRISSOM   FAIR      57  47  71 CALM      30.04R
6HR MIN TEMP:  54; 6HR MAX TEMP:  66;


$$
INZ028>050-180700-
CENTRAL INDIANA

CITY           SKY/WX    TMP DP  RH WIND       PRES   REMARKS
LAFAYETTE      FAIR      53  47  79 CALM      30.04R
6HR MIN TEMP:  52; 6HR MAX TEMP:  71;

KOKOMO*        FAIR      54  46  76 CALM      30.05R
6HR MIN TEMP:  54; 6HR MAX TEMP:  73;

MUNCIE*        FAIR      54  45  71 CALM      30.05R
6HR MIN TEMP:  53; 6HR MAX TEMP:  71;

INDIANAPOLIS   FAIR      56  46  69 W5        30.04
6HR MIN TEMP:  56; 6HR MAX TEMP:  72;


$$
MIZ043>046-050>051-056>058-064>065-071>073-077>080-180700-
SOUTHWEST LOWER MICHIGAN

CITY           SKY/WX    TMP DP  RH WIND       PRES   REMARKS
BATTLE CREEK   FAIR      54  42  64 CALM      30.02S
6HR MIN TEMP:  52; 6HR MAX TEMP:  71;

BENTON HARBOR  FAIR      50  45  83 CALM      30.00F
6HR MIN TEMP:  50; 6HR MAX TEMP:  68;

COLDWATER*     FAIR      50  44  80 CALM      30.01F
6HR MIN TEMP:  49; 6HR MAX TEMP:  68;

HILLSDALE*     FAIR      55  40  58 CALM      30.02S
6HR MIN TEMP:  54; 6HR MAX TEMP:  69;

HOLLAND        FAIR      53  45  74 CALM      30.01S
6HR MIN TEMP:  52; 6HR MAX TEMP:  67;

GRAND RAPIDS   FAIR      50  41  71 S5        30.00F
6HR MIN TEMP:  50; 6HR MAX TEMP:  69;

KALAMAZOO      FAIR      52  46  80 CALM      30.01F
6HR MIN TEMP:  51; 6HR MAX TEMP:  70;

STURGIS*       FAIR      54  43  66 CALM      30.02S
THREE RIVERS*  FAIR      51  46  82 CALM      30.02S

$$
OHZ001>008-015>018-024>025-180700-
NORTHWEST OHIO

CITY           SKY/WX    TMP DP  RH WIND       PRES   REMARKS
DEFIANCE       FAIR      53  44  71 CALM      30.02S
6HR MIN TEMP:  52; 6HR MAX TEMP:  73;

FINDLAY        FAIR      56  41  57 S7        30.02S
6HR MIN TEMP:  54; 6HR MAX TEMP:  70;

TOLEDO EXPRESS FAIR      50  42  74 CALM      30.01S
6HR MIN TEMP:  50; 6HR MAX TEMP:  73;

TOLEDO METCALF FAIR      55  40  56 SW5       30.02S
6HR MIN TEMP:  54; 6HR MAX TEMP:  71;

LIMA           FAIR      56  41  57 CALM      30.03F
6HR MIN TEMP:  56; 6HR MAX TEMP:  73;


$$
AND FOR LAKE MICHIGAN COASTAL AND OPEN LAKE BUOY OBSERVATIONS

STATION/POSITION TEMP    WIND        PRES    VSBY  WAVE
                 AIR SEA DIR/SP/G                  HT/PER
                 (F)     (DEG/KT/KT) (MB)    (MI)  (FT/S)
CALUMET HARBOR    64     200/  5       N/A
MICHIGAN CITY     66     130/  9/ 10   N/A
BURNS HARBOR      64     190/  8/  9 1016.9S
SAINT JOSEPH      65     140/  5/ 11 1016.3F
MICHIGAN CITY     54 47                N/A           0

$$
&&


USA.gov is the U.S. government's official web portal to all federal, state and local government web resources and services.